Location: Sobotiste
(48.7170°N, 17.4000°E)
Time: 08:46:03
(UTC+02:00)

YUBILEINY - Pass Details

Date: 19 March 2026
Orbit: 1477 x 1509 km, 82.5° (Epoch: 17 April)

Event Time Altitude Azimuth Distance (km) Brightness Sun altitude
Rises 02:32:46 0° 349° (N) 4,621 ? -31.6°
Reaches altitude 10° 02:35:40 10° 351° (N) 3,634 ? -31.2°
Maximum altitude 02:44:26 81° 80° (E) 1,501 ? -30.1°
Enters shadow 02:50:58 20° 166° (SSE) 2,897 ? -29.3°
